CW6099 Weather Reports


Display with metric or nautical units.
time (UTC)temp
F
wind
direction
speed
MPH
gust
MPH
rain 1hr
in
rain 24hr
in
rain mn
in
humidity
%
barometer
mb
20240526212322 78 330 14.0 25.0 0.00 0.00 0.00 18 1010.1
20240526211417 78 355 17.0 27.0 0.00 0.00 0.00 21 1010.0
20240526211314 78 323 19.0 27.0 0.00 0.00 0.00 20 1010.0
20240526210427 79 360 13.0 25.0 0.00 0.00 0.00 20 1010.0
20240526210318 79 324 17.0 25.0 0.00 0.00 0.00 20 1010.1
20240526205429 77 313 16.0 23.0 0.00 0.00 0.00 23 1010.2
20240526205321 77 350 16.0 22.0 0.00 0.00 0.00 23 1010.1
20240526204434 77 315 16.0 26.0 0.00 0.00 0.00 24 1010.0
20240526204325 77 328 16.0 26.0 0.00 0.00 0.00 23 1010.0
20240526203418 80 315 18.0 30.0 0.00 0.00 0.00 22 1009.9
20240526203312 80 317 16.0 26.0 0.00 0.00 0.00 23 1009.9
20240526202410 78 296 19.0 30.0 0.00 0.00 0.00 22 1009.9
20240526202323 78 315 18.0 30.0 0.00 0.00 0.00 22 1009.9
20240526201416 76 355 18.0 26.0 0.00 0.00 0.00 25 1009.9
20240526201328 76 325 18.0 25.0 0.00 0.00 0.00 24 1009.9
20240526200422 77 323 14.0 30.0 0.00 0.00 0.00 24 1009.9
20240526200314 77 5 14.0 30.0 0.00 0.00 0.00 24 1009.9
20240526195428 77 334 17.0 27.0 0.00 0.00 0.00 25 1009.7
20240526195338 77 355 19.0 28.0 0.00 0.00 0.00 25 1009.7
20240526194412 78 337 18.0 28.0 0.00 0.00 0.00 24 1009.7
20240526194328 78 26 17.0 28.0 0.00 0.00 0.00 26 1009.7
20240526193422 77 338 13.0 27.0 0.00 0.00 0.00 24 1009.6
20240526193316 77 329 13.0 27.0 0.00 0.00 0.00 26 1009.7
20240526192450 77 320 17.0 26.0 0.00 0.00 0.00 27 1009.6
20240526192320 77 322 18.0 27.0 0.00 0.00 0.00 26 1009.6
20240526191414 77 313 15.0 23.0 0.00 0.00 0.00 26 1009.4
20240526191326 77 360 14.0 23.0 0.00 0.00 0.00 25 1009.4
20240526190420 77 317 18.0 29.0 0.00 0.00 0.00 26 1009.5
20240526190333 76 320 19.0 29.0 0.00 0.00 0.00 27 1009.5
20240526185426 77 322 21.0 28.0 0.00 0.00 0.00 25 1009.5
20240526185322 77 306 19.0 28.0 0.00 0.00 0.00 25 1009.5
20240526184415 77 312 18.0 28.0 0.00 0.00 0.00 26 1009.5
20240526184327 77 320 17.0 28.0 0.00 0.00 0.00 25 1009.5
20240526183421 77 307 16.0 28.0 0.00 0.00 0.00 24 1009.4
20240526183334 77 294 18.0 28.0 0.00 0.00 0.00 25 1009.4
20240526182426 77 318 17.0 27.0 0.00 0.00 0.00 27 1009.4
20240526182319 77 312 18.0 27.0 0.00 0.00 0.00 26 1009.3
20240526181413 76 291 18.0 28.0 0.00 0.00 0.00 26 1009.1
20240526181311 76 298 17.0 28.0 0.00 0.00 0.00 27 1009.2
20240526180437 76 305 13.0 28.0 0.00 0.00 0.00 28 1009.1
20240526180329 76 308 13.0 28.0 0.00 0.00 0.00 25 1009.1
20240526175423 75 318 21.0 29.0 0.00 0.00 0.00 26 1009.1
20240526175336 75 304 20.0 29.0 0.00 0.00 0.00 27 1009.1
20240526174429 75 310 12.0 26.0 0.00 0.00 0.00 28 1009.0
20240526174323 75 302 15.0 26.0 0.00 0.00 0.00 27 1009.1
20240526173413 75 299 18.0 25.0 0.00 0.00 0.00 29 1009.0
20240526173326 75 319 18.0 25.0 0.00 0.00 0.00 28 1009.0
20240526172424 75 317 17.0 30.0 0.00 0.00 0.00 29 1008.9
20240526172317 75 296 17.0 30.0 0.00 0.00 0.00 27 1008.9
20240526171412 74 306 18.0 26.0 0.00 0.00 0.00 28 1008.9
20240526171325 74 319 18.0 26.0 0.00 0.00 0.00 28 1008.9
20240526170437 74 295 15.0 24.0 0.00 0.00 0.00 31 1008.9
20240526170330 74 319 14.0 24.0 0.00 0.00 0.00 29 1008.9
20240526165424 73 316 16.0 29.0 0.00 0.00 0.00 31 1008.9
20240526165318 73 319 15.0 29.0 0.00 0.00 0.00 30 1009.0
20240526164413 72 315 18.0 32.0 0.00 0.00 0.00 31 1008.9
20240526164326 72 317 17.0 32.0 0.00 0.00 0.00 31 1008.9
20240526163421 72 309 16.0 26.0 0.00 0.00 0.00 32 1008.8
20240526163315 72 301 17.0 26.0 0.00 0.00 0.00 32 1008.8
20240526162429 72 307 17.0 24.0 0.00 0.00 0.00 32 1008.9
20240526162323 72 327 17.0 24.0 0.00 0.00 0.00 32 1008.8
20240526161417 71 295 13.0 25.0 0.00 0.00 0.00 33 1008.9
20240526161314 71 319 16.0 25.0 0.00 0.00 0.00 33 1008.8
20240526160426 70 360 19.0 30.0 0.00 0.00 0.00 35 1008.9
20240526160320 70 327 18.0 30.0 0.00 0.00 0.00 35 1009.0
20240526155414 70 335 16.0 29.0 0.00 0.01 0.00 35 1008.9
20240526155326 70 10 17.0 29.0 0.00 0.01 0.00 35 1008.9
20240526154421 70 309 18.0 26.0 0.00 0.01 0.00 37 1009.0
20240526154313 70 319 15.0 27.0 0.00 0.01 0.00 37 1008.9
20240526153407 69 320 16.0 27.0 0.00 0.01 0.00 38 1008.8
20240526153326 69 360 18.0 27.0 0.00 0.01 0.00 38 1008.8
20240526152416 68 313 20.0 26.0 0.00 0.01 0.00 37 1008.8
20240526152327 68 321 18.0 26.0 0.00 0.01 0.00 37 1008.8
20240526151422 68 313 17.0 26.0 0.00 0.01 0.00 40 1008.8
20240526151313 68 321 19.0 26.0 0.00 0.01 0.00 40 1008.8
20240526150427 68 360 17.0 25.0 0.00 0.01 0.00 40 1008.7
20240526150340 68 325 17.0 25.0 0.00 0.01 0.00 40 1008.8
20240526145413 68 315 16.0 22.0 0.00 0.01 0.00 38 1008.6
20240526145310 68 295 14.0 24.0 0.00 0.01 0.00 38 1008.7
20240526144425 68 360 15.0 24.0 0.00 0.01 0.00 36 1008.5
20240526144318 68 302 15.0 24.0 0.00 0.01 0.00 36 1008.4
20240526143449 66 308 8.0 12.0 0.00 0.01 0.00 40 1008.2
20240526143321 65 309 8.0 15.0 0.00 0.01 0.00 40 1008.1
20240526142414 64 290 8.0 14.0 0.00 0.01 0.00 43 1008.3
20240526142347 64 301 7.0 14.0 0.00 0.01 0.00 43 1008.3
20240526141439 64 316 12.0 19.0 0.00 0.01 0.00 43 1008.3
20240526141312 64 321 11.0 19.0 0.00 0.01 0.00 43 1008.3
20240526140445 64 317 15.0 28.0 0.00 0.01 0.00 44 1008.4
20240526140337 64 319 17.0 28.0 0.00 0.01 0.00 45 1008.4
20240526135409 63 315 18.0 30.0 0.00 0.01 0.00 48 1008.5
20240526135326 63 360 17.0 30.0 0.00 0.01 0.00 48 1008.5
20240526134420 63 312 17.0 32.0 0.00 0.01 0.00 48 1008.7
20240526134313 63 306 18.0 32.0 0.00 0.01 0.00 48 1008.6
20240526133426 62 309 20.0 30.0 0.00 0.01 0.00 48 1008.5
20240526133320 62 323 18.0 30.0 0.00 0.01 0.00 49 1008.6
20240526132412 61 315 21.0 32.0 0.00 0.01 0.00 50 1008.5
20240526132325 61 313 22.0 32.0 0.00 0.01 0.00 50 1008.5
20240526131415 60 321 22.0 29.0 0.00 0.01 0.00 51 1008.4
20240526131329 60 318 21.0 29.0 0.00 0.01 0.00 52 1008.4
20240526130421 59 318 20.0 31.0 0.00 0.01 0.00 53 1008.4
20240526130319 59 305 19.0 31.0 0.00 0.01 0.00 53 1008.4
20240526125434 58 360 14.0 27.0 0.00 0.01 0.00 54 1008.3
20240526125323 58 317 14.0 27.0 0.00 0.01 0.00 54 1008.3
20240526124419 58 325 18.0 25.0 0.00 0.01 0.00 55 1008.2
20240526124310 58 319 18.0 25.0 0.00 0.01 0.00 55 1008.2
20240526123425 57 321 13.0 18.0 0.00 0.01 0.00 56 1008.0
20240526123317 57 323 13.0 18.0 0.00 0.01 0.00 56 1007.9
20240526122412 56 309 14.0 22.0 0.00 0.01 0.00 58 1007.8
20240526122310 56 315 15.0 22.0 0.00 0.01 0.00 58 1007.8
20240526121423 56 303 13.0 19.0 0.00 0.01 0.00 57 1007.7
20240526121316 56 302 14.0 19.0 0.00 0.01 0.00 57 1007.7
20240526120409 55 304 15.0 22.0 0.00 0.01 0.00 58 1007.5
20240526120341 55 314 15.0 22.0 0.00 0.01 0.00 58 1007.6
20240526115411 55 299 11.0 26.0 0.00 0.01 0.00 58 1007.4
20240526115323 55 303 11.0 26.0 0.00 0.01 0.00 58 1007.4
20240526114418 53 316 17.0 24.0 0.00 0.01 0.00 62 1006.7
20240526114316 52 360 15.0 23.0 0.00 0.01 0.00 63 1006.7
20240526113430 48 312 12.0 17.0 0.00 0.01 0.00 68 1006.5
20240526113322 48 318 11.0 17.0 0.00 0.01 0.00 68 1006.6
20240526112416 47 296 10.0 14.0 0.00 0.01 0.00 65 1006.5
20240526112348 47 304 9.0 14.0 0.00 0.01 0.00 65 1006.5
20240526111420 48 286 6.0 9.0 0.00 0.01 0.00 64 1006.5
20240526111312 48 283 5.0 9.0 0.00 0.01 0.00 63 1006.5
20240526110417 48 295 6.0 9.0 0.00 0.01 0.00 64 1006.3
20240526110349 48 295 7.0 9.0 0.00 0.01 0.00 64 1006.3
20240526105422 48 282 4.0 7.0 0.00 0.01 0.00 63 1006.3
20240526105312 48 284 4.0 7.0 0.00 0.01 0.00 63 1006.1
20240526104409 48 289 6.0 11.0 0.00 0.01 0.00 64 1005.9
20240526104322 48 292 7.0 11.0 0.00 0.01 0.00 64 1005.9
20240526103416 49 303 10.0 13.0 0.00 0.01 0.00 63 1005.7
20240526103310 49 306 9.0 13.0 0.00 0.01 0.00 63 1005.7
20240526102423 48 325 10.0 14.0 0.00 0.01 0.00 64 1005.5
20240526102316 49 314 10.0 14.0 0.00 0.01 0.00 64 1005.5
20240526101410 48 322 9.0 12.0 0.00 0.01 0.00 64 1005.4
20240526101323 48 333 9.0 12.0 0.00 0.01 0.00 64 1005.4
20240526100423 49 300 9.0 12.0 0.00 0.01 0.00 64 1005.4
20240526100315 49 360 9.0 12.0 0.00 0.01 0.00 64 1005.5
20240526095410 48 320 9.0 12.0 0.00 0.01 0.00 65 1005.3
20240526095323 48 315 9.0 12.0 0.00 0.01 0.00 65 1005.3
20240526094437 47 321 6.0 10.0 0.00 0.01 0.00 64 1005.1
20240526094349 47 311 6.0 10.0 0.00 0.01 0.00 64 1005.1
20240526093421 48 301 8.0 10.0 0.00 0.01 0.00 62 1004.8
20240526093315 48 304 8.0 10.0 0.00 0.01 0.00 62 1004.8
20240526092428 49 313 7.0 12.0 0.00 0.01 0.00 62 1004.7
20240526092324 49 320 7.0 12.0 0.00 0.01 0.00 61 1004.7
20240526091415 50 302 8.0 13.0 0.00 0.01 0.00 60 1004.6
20240526091326 50 306 9.0 13.0 0.00 0.01 0.00 60 1004.6
20240526090421 51 312 10.0 14.0 0.00 0.01 0.00 60 1004.4
20240526090314 51 317 10.0 14.0 0.00 0.01 0.00 60 1004.4
20240526085429 52 310 7.0 11.0 0.00 0.01 0.00 58 1004.4
20240526085319 52 311 7.0 11.0 0.00 0.01 0.00 58 1004.4
20240526084413 53 318 8.0 13.0 0.00 0.01 0.00 57 1004.3
20240526084311 53 329 8.0 13.0 0.00 0.01 0.00 57 1004.3
20240526083425 53 319 11.0 15.0 0.00 0.01 0.00 57 1004.1
20240526083319 53 317 11.0 15.0 0.00 0.01 0.00 57 1004.1
20240526082413 54 309 9.0 14.0 0.00 0.01 0.00 56 1004.0
20240526082327 54 299 9.0 16.0 0.00 0.01 0.00 55 1004.0
20240526081421 54 309 13.0 16.0 0.00 0.01 0.00 55 1003.8
20240526081314 54 314 12.0 15.0 0.00 0.01 0.00 55 1003.8
20240526080426 55 328 8.0 12.0 0.00 0.01 0.00 54 1003.6
20240526080323 55 341 8.0 12.0 0.00 0.01 0.00 54 1003.6
20240526075418 56 9 8.0 11.0 0.00 0.01 0.00 52 1003.4
20240526075309 56 360 7.0 11.0 0.00 0.01 0.00 52 1003.4
20240526074423 56 360 10.0 15.0 0.00 0.01 0.00 52 1003.6
20240526074316 56 355 11.0 16.0 0.00 0.01 0.00 52 1003.7
20240526073411 56 323 13.0 19.0 0.00 0.01 0.00 54 1004.1
20240526073324 56 319 14.0 21.0 0.00 0.01 0.00 54 1004.1
20240526072419 55 311 16.0 21.0 0.00 0.01 0.00 54 1004.8
20240526072314 55 304 15.0 20.0 0.00 0.01 0.00 54 1004.8
20240526071408 55 288 12.0 18.0 0.00 0.01 0.00 54 1004.9
20240526071342 55 277 12.0 18.0 0.00 0.01 0.00 55 1004.9
20240526070415 55 293 11.0 14.0 0.00 0.01 0.00 56 1004.3
20240526070326 55 300 11.0 14.0 0.00 0.01 0.00 56 1004.3
20240526065418 55 308 11.0 13.0 0.00 0.01 0.00 55 1004.2
20240526065311 55 303 11.0 13.0 0.00 0.01 0.00 55 1004.2
20240526064445 56 302 11.0 14.0 0.00 0.01 0.00 54 1004.3
20240526064318 56 301 11.0 14.0 0.00 0.01 0.00 54 1004.2
20240526063412 57 360 13.0 18.0 0.00 0.01 0.00 53 1004.3
20240526063346 57 321 13.0 19.0 0.00 0.01 0.00 53 1004.3
20240526062420 57 315 16.0 20.0 0.00 0.01 0.00 53 1004.1
20240526062313 57 319 14.0 20.0 0.00 0.01 0.00 53 1004.1
20240526061428 56 325 13.0 16.0 0.00 0.01 0.00 54 1004.0
20240526061321 56 320 13.0 16.0 0.00 0.01 0.00 54 1004.0
20240526060416 56 320 12.0 19.0 0.00 0.01 0.00 54 1004.1
20240526060313 56 313 12.0 19.0 0.00 0.01 0.00 54 1004.1
20240526055429 56 312 14.0 18.0 0.00 0.01 0.01 55 1004.0
20240526055322 56 319 14.0 17.0 0.00 0.01 0.01 54 1003.9
20240526054416 56 321 9.0 17.0 0.00 0.01 0.01 54 1003.7
20240526054329 56 325 10.0 17.0 0.00 0.01 0.01 54 1003.7
20240526053421 55 329 9.0 11.0 0.00 0.01 0.01 54 1003.5
20240526053314 55 324 8.0 11.0 0.00 0.01 0.01 54 1003.5
20240526052427 56 315 8.0 10.0 0.00 0.01 0.01 54 1003.4
20240526052324 56 326 7.0 9.0 0.00 0.01 0.01 53 1003.4
20240526051439 56 331 6.0 10.0 0.00 0.01 0.01 53 1003.3
20240526051312 56 360 7.0 10.0 0.00 0.01 0.01 52 1003.4
20240526050427 57 5 4.0 8.0 0.00 0.01 0.01 52 1003.2
20240526050318 57 28 4.0 8.0 0.00 0.01 0.01 52 1003.2
20240526045412 58 32 4.0 6.0 0.00 0.01 0.01 51 1003.3
20240526045325 58 34 4.0 6.0 0.00 0.01 0.01 51 1003.2
20240526044419 58 15 4.0 9.0 0.00 0.01 0.01 50 1003.3
20240526044312 58 10 5.0 12.0 0.00 0.01 0.01 50 1003.4
20240526043446 59 5 7.0 12.0 0.00 0.01 0.01 49 1003.4
20240526043322 59 5 6.0 12.0 0.00 0.01 0.01 49 1003.4
20240526042414 60 22 5.0 10.0 0.00 0.01 0.01 48 1003.6
20240526042326 60 30 5.0 10.0 0.00 0.01 0.01 48 1003.6
20240526041418 61 24 9.0 12.0 0.00 0.01 0.01 46 1003.6
20240526041331 61 15 7.0 12.0 0.00 0.01 0.01 46 1003.6
20240526040424 62 17 8.0 16.0 0.00 0.01 0.01 45 1003.7
20240526040317 62 17 9.0 16.0 0.00 0.01 0.01 45 1003.7
20240526035412 62 23 12.0 17.0 0.00 0.01 0.01 44 1003.6
20240526035330 62 29 12.0 18.0 0.00 0.01 0.01 44 1003.6
20240526034441 63 44 13.0 19.0 0.00 0.01 0.01 43 1003.5
20240526034313 63 11 13.0 19.0 0.00 0.01 0.01 43 1003.4
20240526033448 63 43 14.0 20.0 0.00 0.01 0.01 43 1003.6
20240526033319 63 48 14.0 20.0 0.00 0.01 0.01 43 1003.7
20240526032412 64 38 13.0 20.0 0.00 0.01 0.01 42 1003.7
20240526032325 64 360 13.0 22.0 0.00 0.01 0.01 42 1003.6
20240526031418 64 15 14.0 21.0 0.00 0.01 0.01 41 1003.3
20240526031330 64 345 15.0 21.0 0.00 0.01 0.01 41 1003.3
20240526030425 65 26 14.0 21.0 0.00 0.01 0.01 40 1003.0
20240526030322 65 46 14.0 21.0 0.00 0.01 0.01 40 1003.0
20240526025416 66 21 12.0 25.0 0.00 0.01 0.01 38 1002.2
20240526025348 66 342 12.0 25.0 0.00 0.01 0.01 38 1002.2
20240526024421 67 360 17.0 26.0 0.00 0.01 0.01 38 1001.8
20240526024313 67 340 18.0 26.0 0.00 0.01 0.01 38 1002.0
20240526023448 68 360 13.0 27.0 0.00 0.01 0.01 36 1002.1
20240526023322 68 311 13.0 27.0 0.00 0.01 0.01 35 1002.1
20240526022415 69 328 21.0 31.0 0.00 0.01 0.01 32 1002.0
20240526022347 69 315 22.0 31.0 0.00 0.01 0.01 32 1002.0
20240526021441 69 21 17.0 25.0 0.00 0.01 0.01 28 1001.5
20240526021317 69 336 15.0 25.0 0.00 0.01 0.01 28 1001.5
20240526020411 67 11 11.0 20.0 0.00 0.01 0.01 28 1001.2
20240526020324 67 360 12.0 20.0 0.00 0.01 0.01 28 1001.1
20240526015439 68 319 12.0 17.0 0.00 0.01 0.01 27 1000.7
20240526015311 69 318 9.0 14.0 0.00 0.01 0.01 28 1000.5
20240526014445 70 5 9.0 14.0 0.00 0.01 0.01 26 1000.0
20240526014318 70 355 9.0 14.0 0.00 0.01 0.01 26 1000.0
20240526013411 71 5 10.0 14.0 0.00 0.01 0.01 24 999.7
20240526013324 72 355 10.0 14.0 0.00 0.01 0.01 24 999.7
20240526012422 73 360 6.0 15.0 0.00 0.01 0.01 23 999.6
20240526012314 73 5 7.0 15.0 0.00 0.01 0.01 22 999.6
20240526011427 75 5 9.0 17.0 0.00 0.01 0.01 21 999.5
20240526011320 75 360 10.0 17.0 0.00 0.01 0.01 21 999.5
20240526010414 78 9 13.0 25.0 0.00 0.01 0.01 19 999.4
20240526010327 78 346 12.0 25.0 0.00 0.01 0.01 18 999.5
20240526005419 81 38 13.0 25.0 0.00 0.01 0.01 16 999.3
20240526005316 82 346 15.0 25.0 0.00 0.01 0.01 15 999.2
20240526004429 86 279 11.0 26.0 0.00 0.01 0.01 6 998.7
20240526004322 86 275 11.0 26.0 0.00 0.01 0.01 6 998.7
20240526003413 87 253 18.0 29.0 0.00 0.01 0.01 6 998.3
20240526003326 87 260 17.0 29.0 0.00 0.01 0.01 6 998.3
20240526002420 87 252 19.0 31.0 0.00 0.01 0.01 6 998.1
20240526002313 87 259 17.0 31.0 0.00 0.01 0.01 6 998.1
20240526001426 88 257 19.0 30.0 0.00 0.01 0.01 6 997.9
20240526001317 88 265 18.0 31.0 0.00 0.01 0.01 6 997.9
20240526000416 89 262 20.0 32.0 0.00 0.01 0.01 6 997.8
20240526000329 89 268 22.0 32.0 0.00 0.01 0.01 6 997.8
20240525235423 89 262 15.0 29.0 0.00 0.01 0.01 6 997.7
20240525235316 89 257 15.0 29.0 0.00 0.01 0.01 6 997.8
20240525234450 90 283 19.0 32.0 0.00 0.01 0.01 6 997.7
20240525234343 90 267 19.0 32.0 0.00 0.01 0.01 6 997.7
20240525233416 90 264 17.0 27.0 0.00 0.01 0.01 6 997.8
20240525233329 90 274 16.0 25.0 0.00 0.01 0.01 6 997.8
20240525232420 88 201 3.0 9.0 0.00 0.01 0.01 7 997.8
20240525232317 88 321 1.0 8.0 0.00 0.01 0.01 6 997.8
20240525231428 86 43 2.0 5.0 0.00 0.01 0.01 10 997.7
20240525231321 86 351 1.0 4.0 0.00 0.01 0.01 9 997.8
20240525230416 86 325 3.0 6.0 0.00 0.01 0.01 11 997.9
20240525230327 86 324 4.0 6.0 0.00 0.01 0.01 11 997.9
20240525225441 86 308 3.0 11.0 0.00 0.01 0.01 8 998.1
20240525225312 86 225 2.0 11.0 0.00 0.01 0.01 6 998.1
20240525224426 86 239 8.0 15.0 0.00 0.01 0.01 6 998.3
20240525224319 86 244 8.0 16.0 0.00 0.01 0.01 6 998.3
20240525223418 86 269 12.0 19.0 0.00 0.01 0.01 6 998.6
20240525223330 86 244 13.0 19.0 0.00 0.01 0.01 6 998.6
20240525222423 87 236 13.0 19.0 0.00 0.01 0.01 6 998.5
20240525222336 87 250 13.0 17.0 0.00 0.01 0.01 6 998.5
20240525221428 87 250 10.0 15.0 0.00 0.01 0.01 8 998.5
20240525221321 87 241 11.0 15.0 0.00 0.01 0.01 8 998.6
20240525220416 89 180 7.0 17.0 0.00 0.01 0.01 6 998.6
20240525220347 89 181 7.0 17.0 0.00 0.01 0.01 6 998.6
20240525215421 89 229 13.0 20.0 0.00 0.01 0.01 6 998.6
20240525215319 89 218 15.0 20.0 0.00 0.01 0.01 6 998.6
20240525214411 90 200 10.0 20.0 0.00 0.01 0.01 6 998.8
20240525214323 90 198 10.0 20.0 0.00 0.01 0.01 6 998.9
20240525213416 89 238 14.0 21.0 0.00 0.01 0.01 6 999.2
20240525213329 89 234 13.0 21.0 0.00 0.01 0.01 6 999.2
20240525212424 90 242 13.0 25.0 0.00 0.01 0.01 6 999.4